Showing default

IRIDIUM 149, 43250

Orbit data source: Space-Track

IRIDIUM 149, 43250 is a payload satellite owned by Iridium (US) in LEO that was launched on Fri, 30 Mar 2018 UTC via an FALCON 9 launch vehicle from the Air Force Western Test Range (AFWTR). Payload-class satellites include a variety of spacecraft equipped with specific instruments for various scientific and technological missions. These include communications satellites like Starlink; space stations such as the ISS; scientific satellites like the Hubble; Earth observation satellites from companies like Planet Labs, Umbra, and HawkEye 360; GPS; miniature CubeSats for education and research; and military/defense satellites.

Loading next visibility...
Identifier
43250, 2018-030B
Orbit
LEO
Country
Flag of USUS
Related business
Manufacturer
OATK SSG Gilbert
Mission
Operational Commercial Communications
Bus & Motor
ELITEBUS, Unknown motor
Mass
860 kg wet, 700 kg dry
Launch date (UTC)
2018-03-30 (8 years ago)
Launch vehicle
FALCON 9
Launch site
Air Force Western Test Range (AFWTR)
Object type
Payload
Rocket body
Debris
Shape & HBR
Trap Box + 2 Pan, 4.8 m
Radar Cross Section
10.154 m², Large (>1 m²)

Expand to show TLE details & history
Last TLE update: 11 hours ago

TLE from 11 hours ago
0 IRIDIUM 149
1 43250U 18030B   26095.11952965  .00000082  00000-0  22102-4 0  9997
2 43250  86.3962 320.9398 0002004  85.5759 274.5666 14.34217597419686
Epoch: 2026-04-05T02:52Z
TLE epoch observation values (Epoch: 2026-04-05T02:52:07.361Z)
Latitude
-0.00001°
Longitude
84.4796°
Altitude
780.605 km
Speed
7.464 km/s
True Right ascension
21h 23m 45s
True Declination
0° 00' 00"
Sunlit
Object was in daylight at epoch
Visualization orbit readout
Latitude
Unknown
Longitude
Unknown
Altitude
Unknown
Speed
Unknown
Apparent Right ascension
Unknown
Apparent Declination
Unknown
Sunlit
N/A
Visualization observer readout
Local Sidereal Time
19:30:30
Azimuth
Unknown
Elevation
Unknown
Doppler factor
Unknown
Orbital elements
Apogee altitude
776.066 km
Perigee altitude
773.199 km
Semi-major axis
7,152.769 km
Eccentricity
0.0002
Inclination
86.3962°
RAAN
320.9398°
Arg. of periapsis
85.5759°
True anomaly
274.54371°
Mean anomaly
274.5666°
Eccentric anomaly
274.55515°
Mean motion
3.58783 °/min
Orbital period
100.34 mins
BSTAR
0.000022102
Loading maneuver chart data...
Computing Atmospheric mass density...
Loading historical data...
Loading historical data...
Loading historical data...
Loading historical data...
Loading historical data...
Loading historical data...
Loading historical data...

Documentation

Showing up to 5 results
|